STARLINK-32525 (62121 NORAD) Tracking and Keplerian Element Data

This shows tracking and keplerian element data for the satellite.

Feedback or suggestion? Click here.




ElementValue
Catalog62121
NameSTARLINK-32525
Epoch Orbit1174
Epoch Day34.927057
Epoch Year2025
RAAN229.8994
Inclination43.0001
Eccentricity0.0001843
Argument of Perigee279.4926
Mean Anonmoly80.5722
Mean Motion15.40696205
Decay Rate3.35E-06
L11 62121U 24222H 25034.92705700 .00000335 00000+0 15290-4 0 9999
L22 62121 43.0001 229.8994 0001843 279.4926 80.5722 15.40696205 11745



Live tracking and technical data element details for STARLINK-32525 (NORAD 62121). STARLINK-32525 can be tracked NOW for your location showing map with azimuth and elevation plus other details from your city location.







IsCatalogInMostPopularTable: catalog: 62121, numindb: 12
Update: records affected: 1



GetName: 62121 STARLINK-32525

Hit Count: updated at: Mon, 19 May 2025 02:12:31 GMT